Time,TemperatureF,DewpointF,PressureIn,WindDirection,WindDirectionDegrees,WindSpeedMPH,WindSpeedGustMPH,Humidity,HourlyPrecipIn,Conditions,Clouds,dailyrainin,SoftwareType,DateUTC
2013-05-10 00:01:00,58.7,58.7,29.99,SSE,161,0.0,0.0,100,0.00,,,0.00,WUHU216DAVISWMX,2013-05-10 04:01:00,
2013-05-10 00:06:00,58.7,58.7,29.98,SSE,161,0.0,0.0,100,0.00,,,0.00,WUHU216DAVISWMX,2013-05-10 04:06:00,
2013-05-10 00:11:00,58.7,58.7,29.98,SSE,161,0.0,0.0,100,0.00,,,0.00,WUHU216DAVISWMX,2013-05-10 04:11:00,
2013-05-10 00:16:00,58.7,58.7,29.98,SSE,161,0.0,0.0,100,0.00,,,0.00,WUHU216DAVISWMX,2013-05-10 04:16:00,
2013-05-10 00:21:00,58.6,58.6,29.98,SSE,161,0.0,0.0,100,0.00,,,0.00,WUHU216DAVISWMX,2013-05-10 04:21:00,
2013-05-10 00:26:00,58.6,58.6,29.98,SSE,161,0.0,0.0,100,0.00,,,0.00,WUHU216DAVISWMX,2013-05-10 04:26:00,
2013-05-10 00:31:00,58.4,58.4,29.98,SSE,161,0.0,0.0,100,0.00,,,0.00,WUHU216DAVISWMX,2013-05-10 04:31:00,
2013-05-10 00:36:00,58.3,58.3,29.98,SSE,161,0.0,0.0,100,0.00,,,0.00,WUHU216DAVISWMX,2013-05-10 04:36:00,
2013-05-10 00:41:00,58.2,58.2,29.98,SSE,161,0.0,0.0,100,0.00,,,0.00,WUHU216DAVISWMX,2013-05-10 04:41:00,
2013-05-10 00:46:00,58.3,58.3,29.98,SSE,161,0.0,0.0,100,0.00,,,0.00,WUHU216DAVISWMX,2013-05-10 04:46:00,
2013-05-10 00:51:00,58.2,58.2,29.98,SSE,161,0.0,0.0,100,0.00,,,0.00,WUHU216DAVISWMX,2013-05-10 04:51:00,
2013-05-10 00:56:00,58.1,58.1,29.98,SSE,161,0.0,0.0,100,0.00,,,0.00,WUHU216DAVISWMX,2013-05-10 04:56:00,
2013-05-10 01:01:00,58.1,58.1,29.98,SSE,162,0.0,0.0,100,0.00,,,0.00,WUHU216DAVISWMX,2013-05-10 05:01:00,
2013-05-10 01:06:00,58.0,58.0,29.97,SSE,161,0.0,0.0,100,0.00,,,0.00,WUHU216DAVISWMX,2013-05-10 05:06:00,
2013-05-10 01:11:00,58.0,58.0,29.97,SSE,161,0.0,0.0,100,0.00,,,0.00,WUHU216DAVISWMX,2013-05-10 05:11:00,
2013-05-10 01:16:00,57.9,57.9,29.98,SSE,161,0.0,0.0,100,0.00,,,0.00,WUHU216DAVISWMX,2013-05-10 05:16:00,
2013-05-10 01:21:00,57.9,57.9,29.98,SSE,161,0.0,0.0,100,0.00,,,0.00,WUHU216DAVISWMX,2013-05-10 05:21:00,
2013-05-10 01:26:00,57.8,57.8,29.97,SSE,161,0.0,0.0,100,0.00,,,0.00,WUHU216DAVISWMX,2013-05-10 05:26:00,
2013-05-10 01:31:00,57.7,57.7,29.98,SSE,161,0.0,0.0,100,0.00,,,0.00,WUHU216DAVISWMX,2013-05-10 05:31:00,
2013-05-10 01:36:00,57.6,57.6,29.98,SSE,161,0.0,0.0,100,0.00,,,0.00,WUHU216DAVISWMX,2013-05-10 05:36:00,
2013-05-10 01:41:00,57.6,57.6,29.98,SSE,161,0.0,0.0,100,0.00,,,0.00,WUHU216DAVISWMX,2013-05-10 05:41:00,
2013-05-10 01:46:00,57.5,57.5,29.98,SSE,161,0.0,0.0,100,0.00,,,0.00,WUHU216DAVISWMX,2013-05-10 05:46:00,
2013-05-10 01:51:00,57.4,57.4,29.98,SSE,161,0.0,0.0,100,0.00,,,0.00,WUHU216DAVISWMX,2013-05-10 05:51:00,
2013-05-10 01:56:00,57.2,57.2,29.98,SSE,161,0.0,0.0,100,0.00,,,0.00,WUHU216DAVISWMX,2013-05-10 05:56:00,
2013-05-10 02:01:00,57.1,57.1,29.98,SSE,161,0.0,0.0,100,0.00,,,0.00,WUHU216DAVISWMX,2013-05-10 06:01:00,
2013-05-10 02:06:00,57.0,57.0,29.98,SSE,161,0.0,0.0,100,0.00,,,0.00,WUHU216DAVISWMX,2013-05-10 06:06:00,
2013-05-10 02:11:00,56.9,56.9,29.98,SSE,161,0.0,0.0,100,0.00,,,0.00,WUHU216DAVISWMX,2013-05-10 06:11:00,
2013-05-10 02:16:00,56.8,56.8,29.98,SSE,161,0.0,0.0,100,0.00,,,0.00,WUHU216DAVISWMX,2013-05-10 06:16:00,
2013-05-10 02:21:00,56.7,56.7,29.98,SSE,161,0.0,0.0,100,0.00,,,0.00,WUHU216DAVISWMX,2013-05-10 06:21:00,
2013-05-10 02:26:00,56.7,56.7,29.98,SSE,161,0.0,0.0,100,0.00,,,0.00,WUHU216DAVISWMX,2013-05-10 06:26:00,
2013-05-10 02:31:00,56.7,56.7,29.98,SSE,161,0.0,0.0,100,0.00,,,0.00,WUHU216DAVISWMX,2013-05-10 06:31:00,
2013-05-10 02:36:00,56.7,56.7,29.98,SSE,161,0.0,0.0,100,0.00,,,0.00,WUHU216DAVISWMX,2013-05-10 06:36:00,
2013-05-10 02:41:00,56.6,56.6,29.98,SSE,161,0.0,0.0,100,0.00,,,0.00,WUHU216DAVISWMX,2013-05-10 06:41:00,
2013-05-10 02:46:00,56.6,56.6,29.97,SSE,161,0.0,0.0,100,0.00,,,0.00,WUHU216DAVISWMX,2013-05-10 06:46:00,
2013-05-10 02:51:00,56.5,56.5,29.97,SSE,161,0.0,0.0,100,0.00,,,0.00,WUHU216DAVISWMX,2013-05-10 06:51:00,
2013-05-10 02:56:00,56.4,56.4,29.98,SSE,161,0.0,0.0,100,0.00,,,0.00,WUHU216DAVISWMX,2013-05-10 06:56:00,
2013-05-10 03:01:00,56.3,56.3,29.98,SSE,161,0.0,0.0,100,0.00,,,0.00,WUHU216DAVISWMX,2013-05-10 07:01:00,
2013-05-10 03:06:00,56.2,56.2,29.98,SSE,161,0.0,0.0,100,0.00,,,0.00,WUHU216DAVISWMX,2013-05-10 07:06:00,
2013-05-10 03:11:00,56.2,56.2,29.98,SSE,161,0.0,0.0,100,0.00,,,0.00,WUHU216DAVISWMX,2013-05-10 07:11:00,
2013-05-10 03:16:00,56.2,56.2,29.98,SSE,161,0.0,0.0,100,0.00,,,0.00,WUHU216DAVISWMX,2013-05-10 07:16:00,
2013-05-10 03:21:00,56.0,56.0,29.98,SSE,161,0.0,0.0,100,0.01,,,0.01,WUHU216DAVISWMX,2013-05-10 07:21:00,
2013-05-10 03:26:00,55.8,55.8,29.98,SSE,161,0.0,0.0,100,0.01,,,0.01,WUHU216DAVISWMX,2013-05-10 07:26:00,
2013-05-10 03:31:00,55.7,55.7,29.98,SSE,161,0.0,0.0,100,0.01,,,0.01,WUHU216DAVISWMX,2013-05-10 07:31:00,
2013-05-10 03:36:00,55.6,55.6,29.98,SSE,161,0.0,0.0,100,0.01,,,0.01,WUHU216DAVISWMX,2013-05-10 07:36:00,
2013-05-10 03:41:00,55.5,55.5,29.98,SSE,161,0.0,0.0,100,0.01,,,0.01,WUHU216DAVISWMX,2013-05-10 07:41:00,
2013-05-10 03:46:00,55.3,55.3,29.98,SSE,161,0.0,0.0,100,0.01,,,0.01,WUHU216DAVISWMX,2013-05-10 07:46:00,
2013-05-10 03:51:00,55.2,55.2,29.98,SSE,161,0.0,0.0,100,0.01,,,0.01,WUHU216DAVISWMX,2013-05-10 07:51:00,
2013-05-10 03:56:00,55.1,55.1,29.98,SSE,161,0.0,0.0,100,0.01,,,0.01,WUHU216DAVISWMX,2013-05-10 07:56:00,
2013-05-10 04:01:00,55.1,55.1,29.98,SSE,161,0.0,0.0,100,0.01,,,0.01,WUHU216DAVISWMX,2013-05-10 08:01:00,
2013-05-10 04:06:00,55.0,55.0,29.98,SSE,161,0.0,0.0,100,0.01,,,0.01,WUHU216DAVISWMX,2013-05-10 08:06:00,
2013-05-10 04:11:00,54.8,54.8,29.98,SSE,161,0.0,0.0,100,0.01,,,0.01,WUHU216DAVISWMX,2013-05-10 08:11:00,
2013-05-10 04:16:00,54.8,54.8,29.98,SSE,161,0.0,0.0,100,0.01,,,0.01,WUHU216DAVISWMX,2013-05-10 08:16:00,
2013-05-10 04:21:00,54.7,54.7,29.99,SSE,161,0.0,0.0,100,0.00,,,0.01,WUHU216DAVISWMX,2013-05-10 08:21:00,
2013-05-10 04:26:00,54.7,54.7,29.99,SSE,161,0.0,0.0,100,0.00,,,0.01,WUHU216DAVISWMX,2013-05-10 08:26:00,
2013-05-10 04:31:00,54.6,54.6,29.99,SSE,161,0.0,0.0,100,0.00,,,0.01,WUHU216DAVISWMX,2013-05-10 08:31:00,
2013-05-10 04:36:00,54.5,54.5,29.99,SSE,161,0.0,0.0,100,0.00,,,0.01,WUHU216DAVISWMX,2013-05-10 08:36:00,
2013-05-10 04:41:00,54.4,54.4,29.99,SSE,161,0.0,0.0,100,0.00,,,0.01,WUHU216DAVISWMX,2013-05-10 08:41:00,
2013-05-10 04:46:00,54.3,54.3,29.99,SSE,161,0.0,0.0,100,0.00,,,0.01,WUHU216DAVISWMX,2013-05-10 08:46:00,
2013-05-10 04:51:00,54.1,54.1,29.99,SSE,161,0.0,0.0,100,0.00,,,0.01,WUHU216DAVISWMX,2013-05-10 08:51:00,
2013-05-10 04:57:00,53.9,53.9,29.99,SSE,161,0.0,0.0,100,0.00,,,0.01,WUHU216DAVISWMX,2013-05-10 08:57:00,
2013-05-10 05:02:00,53.9,53.9,29.98,SSE,161,0.0,0.0,100,0.00,,,0.01,WUHU216DAVISWMX,2013-05-10 09:02:00,
2013-05-10 05:07:00,53.9,53.9,29.99,SSE,161,0.0,0.0,100,0.00,,,0.01,WUHU216DAVISWMX,2013-05-10 09:07:00,
2013-05-10 05:12:00,53.7,53.7,29.99,SSE,161,0.0,0.0,100,0.00,,,0.01,WUHU216DAVISWMX,2013-05-10 09:12:00,
2013-05-10 05:17:00,53.7,53.7,29.99,SSE,161,0.0,0.0,100,0.00,,,0.01,WUHU216DAVISWMX,2013-05-10 09:17:00,
2013-05-10 05:22:00,53.6,53.6,30.00,SSE,161,0.0,0.0,100,0.00,,,0.01,WUHU216DAVISWMX,2013-05-10 09:22:00,
2013-05-10 05:27:00,53.6,53.6,30.00,SSE,161,0.0,0.0,100,0.00,,,0.01,WUHU216DAVISWMX,2013-05-10 09:27:00,
2013-05-10 05:32:00,53.4,53.4,30.00,SSE,161,0.0,0.0,100,0.00,,,0.01,WUHU216DAVISWMX,2013-05-10 09:32:00,
2013-05-10 05:37:00,53.3,53.3,30.00,SSE,161,0.0,0.0,100,0.00,,,0.01,WUHU216DAVISWMX,2013-05-10 09:37:00,
2013-05-10 05:42:00,53.2,53.2,30.00,SSE,161,0.0,0.0,100,0.00,,,0.01,WUHU216DAVISWMX,2013-05-10 09:42:00,
2013-05-10 05:47:00,53.1,53.1,30.00,SSE,161,0.0,0.0,100,0.00,,,0.01,WUHU216DAVISWMX,2013-05-10 09:47:00,
2013-05-10 05:52:00,53.0,53.0,30.00,SSE,161,0.0,0.0,100,0.00,,,0.01,WUHU216DAVISWMX,2013-05-10 09:52:00,
2013-05-10 05:57:00,53.0,53.0,30.00,SSE,161,0.0,0.0,100,0.00,,,0.01,WUHU216DAVISWMX,2013-05-10 09:57:00,
2013-05-10 06:02:00,53.0,53.0,30.01,SSE,161,0.0,0.0,100,0.00,,,0.01,WUHU216DAVISWMX,2013-05-10 10:02:00,
2013-05-10 06:07:00,52.9,52.9,30.01,SSE,161,0.0,0.0,100,0.00,,,0.01,WUHU216DAVISWMX,2013-05-10 10:07:00,
2013-05-10 06:12:00,52.8,52.8,30.01,SSE,161,0.0,0.0,100,0.00,,,0.01,WUHU216DAVISWMX,2013-05-10 10:12:00,
2013-05-10 06:17:00,52.9,52.9,30.01,SSE,161,0.0,0.0,100,0.00,,,0.01,WUHU216DAVISWMX,2013-05-10 10:17:00,
2013-05-10 06:22:00,52.9,52.9,30.01,SSE,161,0.0,0.0,100,0.00,,,0.01,WUHU216DAVISWMX,2013-05-10 10:22:00,
2013-05-10 06:27:00,52.9,52.9,30.01,SSE,161,0.0,0.0,100,0.00,,,0.01,WUHU216DAVISWMX,2013-05-10 10:27:00,
2013-05-10 06:32:00,52.9,52.9,30.01,SSE,161,0.0,0.0,100,0.00,,,0.01,WUHU216DAVISWMX,2013-05-10 10:32:00,
2013-05-10 06:37:00,52.9,52.9,30.01,SSE,161,0.0,0.0,100,0.00,,,0.01,WUHU216DAVISWMX,2013-05-10 10:37:00,
2013-05-10 06:42:00,53.0,53.0,30.01,SSE,161,0.0,0.0,100,0.00,,,0.01,WUHU216DAVISWMX,2013-05-10 10:42:00,
2013-05-10 06:47:00,53.1,53.1,30.01,SSE,161,0.0,0.0,100,0.00,,,0.01,WUHU216DAVISWMX,2013-05-10 10:47:00,
2013-05-10 06:52:00,53.0,53.0,30.01,SSE,161,0.0,0.0,100,0.00,,,0.01,WUHU216DAVISWMX,2013-05-10 10:52:00,
2013-05-10 06:57:00,53.0,53.0,30.01,SSE,161,0.0,0.0,100,0.00,,,0.01,WUHU216DAVISWMX,2013-05-10 10:57:00,
2013-05-10 07:02:00,53.1,53.1,30.01,SSE,161,0.0,0.0,100,0.00,,,0.01,WUHU216DAVISWMX,2013-05-10 11:02:00,
2013-05-10 07:07:00,53.1,53.1,30.01,SSE,161,0.0,0.0,100,0.00,,,0.01,WUHU216DAVISWMX,2013-05-10 11:07:00,
2013-05-10 07:12:00,53.3,53.3,30.02,SSE,161,0.0,0.0,100,0.00,,,0.01,WUHU216DAVISWMX,2013-05-10 11:12:00,
2013-05-10 07:17:00,53.5,53.5,30.02,SSE,161,0.0,0.0,100,0.00,,,0.01,WUHU216DAVISWMX,2013-05-10 11:17:00,
2013-05-10 07:22:00,53.7,53.7,30.02,SSE,161,0.0,0.0,100,0.00,,,0.01,WUHU216DAVISWMX,2013-05-10 11:22:00,
2013-05-10 07:27:00,53.9,53.9,30.02,SSE,161,0.0,0.0,100,0.00,,,0.01,WUHU216DAVISWMX,2013-05-10 11:27:00,
2013-05-10 07:32:00,54.1,54.1,30.02,SSE,161,0.0,0.0,100,0.00,,,0.01,WUHU216DAVISWMX,2013-05-10 11:32:00,
2013-05-10 07:37:00,54.3,54.3,30.02,SSE,161,0.0,0.0,100,0.00,,,0.01,WUHU216DAVISWMX,2013-05-10 11:37:00,
2013-05-10 07:42:00,54.6,54.6,30.02,SSE,161,0.0,0.0,100,0.00,,,0.01,WUHU216DAVISWMX,2013-05-10 11:42:00,
2013-05-10 07:47:00,54.8,54.8,30.02,SSE,161,0.0,0.0,100,0.00,,,0.01,WUHU216DAVISWMX,2013-05-10 11:47:00,
2013-05-10 07:52:00,55.2,55.2,30.02,SSE,161,0.0,0.0,100,0.00,,,0.01,WUHU216DAVISWMX,2013-05-10 11:52:00,
2013-05-10 07:57:00,55.7,55.7,30.02,SSE,161,0.0,0.0,100,0.00,,,0.01,WUHU216DAVISWMX,2013-05-10 11:57:00,
2013-05-10 08:02:00,56.3,56.3,30.03,SSE,161,0.0,0.0,100,0.00,,,0.01,WUHU216DAVISWMX,2013-05-10 12:02:00,
2013-05-10 08:07:00,56.8,56.8,30.03,SSE,161,0.0,0.0,100,0.00,,,0.01,WUHU216DAVISWMX,2013-05-10 12:07:00,
2013-05-10 08:12:00,57.3,57.3,30.03,SSE,161,0.0,0.0,100,0.00,,,0.01,WUHU216DAVISWMX,2013-05-10 12:12:00,
2013-05-10 08:17:00,57.7,57.7,30.03,SSE,161,0.0,0.0,100,0.00,,,0.01,WUHU216DAVISWMX,2013-05-10 12:17:00,
2013-05-10 08:22:00,58.2,58.2,30.03,SSE,161,0.0,0.0,100,0.00,,,0.01,WUHU216DAVISWMX,2013-05-10 12:22:00,
2013-05-10 08:27:00,58.9,58.9,30.03,SSE,161,0.0,0.0,100,0.00,,,0.01,WUHU216DAVISWMX,2013-05-10 12:27:00,
2013-05-10 08:32:00,59.8,59.8,30.03,SSE,161,0.0,0.0,100,0.00,,,0.01,WUHU216DAVISWMX,2013-05-10 12:32:00,
2013-05-10 08:37:00,60.9,60.9,30.03,SSE,161,0.0,0.0,100,0.00,,,0.01,WUHU216DAVISWMX,2013-05-10 12:37:00,
2013-05-10 08:42:00,61.9,61.9,30.02,SSE,161,0.0,0.0,100,0.00,,,0.01,WUHU216DAVISWMX,2013-05-10 12:42:00,
2013-05-10 08:47:00,62.7,62.7,30.03,SSE,161,0.0,0.0,100,0.00,,,0.01,WUHU216DAVISWMX,2013-05-10 12:47:00,
2013-05-10 08:52:00,63.6,63.3,30.02,SSE,161,0.0,0.0,99,0.00,,,0.01,WUHU216DAVISWMX,2013-05-10 12:52:00,
2013-05-10 08:57:00,64.1,62.9,30.02,SSE,161,0.0,0.0,96,0.00,,,0.01,WUHU216DAVISWMX,2013-05-10 12:57:00,
2013-05-10 09:02:00,64.8,63.3,30.02,SSE,161,0.0,0.0,95,0.00,,,0.01,WUHU216DAVISWMX,2013-05-10 13:02:00,
2013-05-10 09:07:00,65.5,63.4,30.02,SSE,166,2.0,2.0,93,0.00,,,0.01,WUHU216DAVISWMX,2013-05-10 13:07:00,
2013-05-10 09:12:00,65.9,63.5,30.02,SSE,166,0.0,2.0,92,0.00,,,0.01,WUHU216DAVISWMX,2013-05-10 13:12:00,
2013-05-10 09:17:00,66.4,63.4,30.02,SSE,166,0.0,2.0,90,0.00,,,0.01,WUHU216DAVISWMX,2013-05-10 13:17:00,
2013-05-10 09:22:00,66.8,64.1,30.02,SSE,166,0.0,2.0,91,0.00,,,0.01,WUHU216DAVISWMX,2013-05-10 13:22:00,
2013-05-10 09:27:00,67.3,64.6,30.02,SSE,166,0.0,1.0,91,0.00,,,0.01,WUHU216DAVISWMX,2013-05-10 13:27:00,
2013-05-10 09:32:00,68.1,65.0,30.02,SSE,166,0.0,1.0,90,0.00,,,0.01,WUHU216DAVISWMX,2013-05-10 13:32:00,
2013-05-10 09:37:00,68.5,64.2,30.02,SSE,166,0.0,1.0,86,0.00,,,0.01,WUHU216DAVISWMX,2013-05-10 13:37:00,
2013-05-10 09:42:00,69.1,64.1,30.02,SSE,165,0.0,3.0,84,0.00,,,0.01,WUHU216DAVISWMX,2013-05-10 13:42:00,
2013-05-10 09:47:00,69.6,64.9,30.02,South,178,0.0,3.0,85,0.00,,,0.01,WUHU216DAVISWMX,2013-05-10 13:47:00,
2013-05-10 09:52:00,70.2,64.8,30.02,South,178,1.0,2.0,83,0.00,,,0.01,WUHU216DAVISWMX,2013-05-10 13:52:00,
2013-05-10 09:57:00,70.7,66.0,30.02,South,178,0.0,2.0,85,0.00,,,0.01,WUHU216DAVISWMX,2013-05-10 13:57:00,
2013-05-10 10:02:00,71.1,66.1,30.02,South,178,1.0,2.0,84,0.00,,,0.01,WUHU216DAVISWMX,2013-05-10 14:02:00,
2013-05-10 10:07:00,71.4,65.7,30.02,South,179,0.0,1.0,82,0.00,,,0.01,WUHU216DAVISWMX,2013-05-10 14:07:00,
2013-05-10 10:12:00,72.1,66.7,30.02,South,179,1.0,2.0,83,0.00,,,0.01,WUHU216DAVISWMX,2013-05-10 14:12:00,
2013-05-10 10:17:00,72.2,65.8,30.01,NW,318,0.0,2.0,80,0.00,,,0.01,WUHU216DAVISWMX,2013-05-10 14:17:00,
2013-05-10 10:22:00,72.5,66.1,30.02,NW,318,1.0,2.0,80,0.00,,,0.01,WUHU216DAVISWMX,2013-05-10 14:22:00,
2013-05-10 10:27:00,72.8,66.7,30.02,WNW,292,2.0,3.0,81,0.00,,,0.01,WUHU216DAVISWMX,2013-05-10 14:27:00,
2013-05-10 10:32:00,73.1,67.3,30.02,SW,215,1.0,3.0,82,0.00,,,0.01,WUHU216DAVISWMX,2013-05-10 14:32:00,
2013-05-10 10:37:00,73.3,66.8,30.02,WSW,253,0.0,3.0,80,0.00,,,0.01,WUHU216DAVISWMX,2013-05-10 14:37:00,
2013-05-10 10:42:00,73.4,66.2,30.02,NNW,332,0.0,3.0,78,0.00,,,0.01,WUHU216DAVISWMX,2013-05-10 14:42:00,
2013-05-10 10:47:00,73.8,66.3,30.02,East,97,3.0,4.0,77,0.00,,,0.01,WUHU216DAVISWMX,2013-05-10 14:47:00,
2013-05-10 10:52:00,74.1,66.6,30.02,NW,322,5.0,5.0,77,0.00,,,0.01,WUHU216DAVISWMX,2013-05-10 14:52:00,
2013-05-10 10:57:00,73.9,65.6,30.02,NW,322,1.0,5.0,75,0.00,,,0.01,WUHU216DAVISWMX,2013-05-10 14:57:00,
2013-05-10 11:02:00,73.8,66.3,30.02,NW,322,1.0,3.0,77,0.00,,,0.01,WUHU216DAVISWMX,2013-05-10 15:02:00,
2013-05-10 11:07:00,73.9,67.1,30.01,NW,322,0.0,2.0,79,0.00,,,0.01,WUHU216DAVISWMX,2013-05-10 15:07:00,
2013-05-10 11:12:00,74.1,66.2,30.02,East,92,2.0,3.0,76,0.00,,,0.01,WUHU216DAVISWMX,2013-05-10 15:12:00,
2013-05-10 11:17:00,74.4,65.7,30.02,East,92,1.0,3.0,74,0.00,,,0.01,WUHU216DAVISWMX,2013-05-10 15:17:00,
2013-05-10 11:22:00,74.3,66.0,30.01,East,82,3.0,3.0,75,0.00,,,0.01,WUHU216DAVISWMX,2013-05-10 15:22:00,
2013-05-10 11:27:00,74.4,65.7,30.02,East,82,1.0,3.0,74,0.00,,,0.01,WUHU216DAVISWMX,2013-05-10 15:27:00,
2013-05-10 11:32:00,74.4,65.4,30.02,WSW,258,0.0,3.0,73,0.00,,,0.01,WUHU216DAVISWMX,2013-05-10 15:32:00,
2013-05-10 11:37:00,74.6,65.9,30.01,WSW,241,0.0,3.0,74,0.00,,,0.01,WUHU216DAVISWMX,2013-05-10 15:37:00,
2013-05-10 11:42:00,75.2,66.5,30.01,WSW,240,1.0,3.0,74,0.00,,,0.01,WUHU216DAVISWMX,2013-05-10 15:42:00,
2013-05-10 11:47:00,75.4,65.9,30.01,South,180,2.0,3.0,72,0.00,,,0.01,WUHU216DAVISWMX,2013-05-10 15:47:00,
2013-05-10 11:52:00,75.3,66.6,30.01,WSW,238,4.0,4.0,74,0.00,,,0.01,WUHU216DAVISWMX,2013-05-10 15:52:00,
2013-05-10 11:57:00,75.6,67.3,30.01,SW,231,2.0,4.0,75,0.00,,,0.01,WUHU216DAVISWMX,2013-05-10 15:57:00,
2013-05-10 12:02:00,75.9,66.4,30.01,WNW,289,2.0,4.0,72,0.00,,,0.01,WUHU216DAVISWMX,2013-05-10 16:02:00,
2013-05-10 12:07:00,75.8,66.3,30.01,SE,143,1.0,4.0,72,0.00,,,0.01,WUHU216DAVISWMX,2013-05-10 16:07:00,
2013-05-10 12:12:00,75.7,66.6,30.01,SE,142,0.0,3.0,73,0.00,,,0.01,WUHU216DAVISWMX,2013-05-10 16:12:00,
2013-05-10 12:17:00,75.8,65.9,30.01,NW,322,1.0,3.0,71,0.00,,,0.01,WUHU216DAVISWMX,2013-05-10 16:17:00,
2013-05-10 12:22:00,75.9,66.4,30.00,NW,321,1.0,2.0,72,0.00,,,0.01,WUHU216DAVISWMX,2013-05-10 16:22:00,
2013-05-10 12:27:00,75.8,66.3,30.00,SW,223,1.0,2.0,72,0.00,,,0.01,WUHU216DAVISWMX,2013-05-10 16:27:00,
2013-05-10 12:32:00,76.1,67.0,30.00,SW,224,0.0,2.0,73,0.00,,,0.01,WUHU216DAVISWMX,2013-05-10 16:32:00,
2013-05-10 12:37:00,76.1,66.6,30.00,WSW,239,0.0,3.0,72,0.00,,,0.01,WUHU216DAVISWMX,2013-05-10 16:37:00,
2013-05-10 12:42:00,76.2,64.2,30.00,WNW,291,3.0,3.0,66,0.00,,,0.01,WUHU216DAVISWMX,2013-05-10 16:42:00,
2013-05-10 12:47:00,76.4,66.1,29.99,SSE,163,2.0,3.0,70,0.00,,,0.01,WUHU216DAVISWMX,2013-05-10 16:47:00,
2013-05-10 12:52:00,76.5,64.9,29.99,ESE,120,1.0,3.0,67,0.00,,,0.01,WUHU216DAVISWMX,2013-05-10 16:52:00,
2013-05-10 12:57:00,76.8,65.7,29.99,ESE,120,1.0,3.0,68,0.00,,,0.01,WUHU216DAVISWMX,2013-05-10 16:57:00,
2013-05-10 13:02:00,77.1,66.4,29.99,WSW,242,4.0,4.0,69,0.00,,,0.01,WUHU216DAVISWMX,2013-05-10 17:02:00,
2013-05-10 13:07:00,77.3,66.6,29.99,WSW,238,1.0,4.0,69,0.00,,,0.01,WUHU216DAVISWMX,2013-05-10 17:07:00,
2013-05-10 13:12:00,77.8,66.2,29.99,SW,228,0.0,3.0,67,0.00,,,0.01,WUHU216DAVISWMX,2013-05-10 17:12:00,
2013-05-10 13:17:00,77.9,66.3,29.99,ENE,64,2.0,3.0,67,0.00,,,0.01,WUHU216DAVISWMX,2013-05-10 17:17:00,
2013-05-10 13:22:00,77.6,66.4,29.99,SSE,148,2.0,3.0,68,0.00,,,0.01,WUHU216DAVISWMX,2013-05-10 17:22:00,
2013-05-10 13:27:00,77.1,65.9,29.98,SSE,148,0.0,3.0,68,0.00,,,0.01,WUHU216DAVISWMX,2013-05-10 17:27:00,
2013-05-10 13:32:00,76.8,64.8,29.98,SE,145,1.0,3.0,66,0.00,,,0.01,WUHU216DAVISWMX,2013-05-10 17:32:00,
2013-05-10 13:37:00,77.0,65.0,29.98,ENE,76,0.0,3.0,66,0.00,,,0.01,WUHU216DAVISWMX,2013-05-10 17:37:00,
2013-05-10 13:42:00,76.6,64.2,29.98,ENE,75,0.0,3.0,65,0.00,,,0.01,WUHU216DAVISWMX,2013-05-10 17:42:00,
2013-05-10 13:47:00,76.2,65.1,29.98,ENE,68,2.0,2.0,68,0.00,,,0.01,WUHU216DAVISWMX,2013-05-10 17:47:00,
2013-05-10 13:53:00,76.0,65.3,29.98,ENE,68,0.0,2.0,69,0.00,,,0.01,WUHU216DAVISWMX,2013-05-10 17:53:00,
2013-05-10 13:58:00,76.0,64.9,29.98,East,80,1.0,2.0,68,0.00,,,0.01,WUHU216DAVISWMX,2013-05-10 17:58:00,
2013-05-10 14:03:00,75.9,63.9,29.98,ENE,68,1.0,3.0,66,0.00,,,0.01,WUHU216DAVISWMX,2013-05-10 18:03:00,
2013-05-10 14:08:00,75.8,64.3,29.98,ENE,68,2.0,3.0,67,0.00,,,0.01,WUHU216DAVISWMX,2013-05-10 18:08:00,
2013-05-10 14:13:00,76.1,66.2,29.98,ENE,68,0.0,2.0,71,0.00,,,0.01,WUHU216DAVISWMX,2013-05-10 18:13:00,
2013-05-10 14:18:00,76.5,64.9,29.98,ENE,68,0.0,2.0,67,0.00,,,0.01,WUHU216DAVISWMX,2013-05-10 18:18:00,
2013-05-10 14:23:00,77.1,65.1,29.98,SW,230,1.0,4.0,66,0.00,,,0.01,WUHU216DAVISWMX,2013-05-10 18:23:00,
2013-05-10 14:28:00,77.4,64.5,29.98,WNW,295,1.0,4.0,64,0.00,,,0.01,WUHU216DAVISWMX,2013-05-10 18:28:00,
2013-05-10 14:33:00,77.7,64.8,29.98,SW,216,2.0,4.0,64,0.00,,,0.01,WUHU216DAVISWMX,2013-05-10 18:33:00,
2013-05-10 14:38:00,77.7,63.4,29.97,WNW,288,2.0,4.0,61,0.00,,,0.01,WUHU216DAVISWMX,2013-05-10 18:38:00,
2013-05-10 14:43:00,77.7,64.3,29.98,SW,230,2.0,5.0,63,0.00,,,0.01,WUHU216DAVISWMX,2013-05-10 18:43:00,
2013-05-10 14:48:00,77.6,64.2,29.98,SW,219,0.0,5.0,63,0.00,,,0.01,WUHU216DAVISWMX,2013-05-10 18:48:00,
2013-05-10 14:53:00,77.6,64.2,29.98,SW,218,1.0,2.0,63,0.00,,,0.01,WUHU216DAVISWMX,2013-05-10 18:53:00,
2013-05-10 14:58:00,77.3,63.5,29.97,ESE,113,0.0,2.0,62,0.00,,,0.01,WUHU216DAVISWMX,2013-05-10 18:58:00,
2013-05-10 15:03:00,77.6,64.2,29.98,SSW,210,2.0,4.0,63,0.00,,,0.01,WUHU216DAVISWMX,2013-05-10 19:03:00,
2013-05-10 15:08:00,77.4,63.1,29.98,WNW,297,0.0,4.0,61,0.00,,,0.01,WUHU216DAVISWMX,2013-05-10 19:08:00,
2013-05-10 15:13:00,77.0,62.7,29.97,WNW,297,0.0,3.0,61,0.00,,,0.01,WUHU216DAVISWMX,2013-05-10 19:13:00,
2013-05-10 15:18:00,76.8,64.4,29.97,WNW,297,0.0,2.0,65,0.00,,,0.01,WUHU216DAVISWMX,2013-05-10 19:18:00,
2013-05-10 15:23:00,76.5,62.3,29.97,WNW,288,0.0,2.0,61,0.00,,,0.01,WUHU216DAVISWMX,2013-05-10 19:23:00,
2013-05-10 15:28:00,76.5,62.7,29.97,WNW,287,1.0,2.0,62,0.00,,,0.01,WUHU216DAVISWMX,2013-05-10 19:28:00,
2013-05-10 15:33:00,76.9,63.1,29.97,WNW,287,3.0,3.0,62,0.00,,,0.01,WUHU216DAVISWMX,2013-05-10 19:33:00,
2013-05-10 15:38:00,77.1,62.8,29.97,WSW,246,1.0,4.0,61,0.00,,,0.01,WUHU216DAVISWMX,2013-05-10 19:38:00,
2013-05-10 15:43:00,77.3,63.0,29.97,WSW,246,3.0,4.0,61,0.00,,,0.01,WUHU216DAVISWMX,2013-05-10 19:43:00,
2013-05-10 15:48:00,77.0,61.8,29.97,SW,224,4.0,5.0,59,0.00,,,0.01,WUHU216DAVISWMX,2013-05-10 19:48:00,
2013-05-10 15:53:00,76.9,62.2,29.97,SW,232,1.0,5.0,60,0.00,,,0.01,WUHU216DAVISWMX,2013-05-10 19:53:00,
2013-05-10 15:58:00,77.0,62.3,29.97,WSW,241,2.0,4.0,60,0.00,,,0.01,WUHU216DAVISWMX,2013-05-10 19:58:00,
2013-05-10 16:03:00,76.9,62.2,29.97,WSW,242,1.0,5.0,60,0.00,,,0.01,WUHU216DAVISWMX,2013-05-10 20:03:00,
2013-05-10 16:08:00,77.1,62.8,29.97,WSW,245,4.0,5.0,61,0.00,,,0.01,WUHU216DAVISWMX,2013-05-10 20:08:00,
2013-05-10 16:13:00,77.5,61.8,29.97,West,261,4.0,5.0,58,0.00,,,0.01,WUHU216DAVISWMX,2013-05-10 20:13:00,
2013-05-10 16:18:00,77.7,61.5,29.97,ESE,122,1.0,4.0,57,0.00,,,0.01,WUHU216DAVISWMX,2013-05-10 20:18:00,
2013-05-10 16:23:00,77.7,62.0,29.97,West,268,3.0,5.0,58,0.00,,,0.01,WUHU216DAVISWMX,2013-05-10 20:23:00,
2013-05-10 16:28:00,77.6,60.3,29.97,NW,314,3.0,6.0,55,0.00,,,0.01,WUHU216DAVISWMX,2013-05-10 20:28:00,
2013-05-10 16:33:00,77.6,60.8,29.97,SSW,206,1.0,6.0,56,0.00,,,0.01,WUHU216DAVISWMX,2013-05-10 20:33:00,
2013-05-10 16:38:00,77.4,61.7,29.97,SSW,211,2.0,5.0,58,0.00,,,0.01,WUHU216DAVISWMX,2013-05-10 20:38:00,
2013-05-10 16:43:00,77.4,61.7,29.96,SW,231,3.0,6.0,58,0.00,,,0.01,WUHU216DAVISWMX,2013-05-10 20:43:00,
2013-05-10 16:48:00,77.4,61.2,29.96,WSW,248,2.0,6.0,57,0.00,,,0.01,WUHU216DAVISWMX,2013-05-10 20:48:00,
2013-05-10 16:53:00,77.3,61.6,29.96,WSW,238,2.0,6.0,58,0.00,,,0.01,WUHU216DAVISWMX,2013-05-10 20:53:00,
2013-05-10 16:58:00,77.0,60.3,29.96,SW,214,2.0,4.0,56,0.00,,,0.01,WUHU216DAVISWMX,2013-05-10 20:58:00,
2013-05-10 17:03:00,77.1,61.4,29.96,West,277,0.0,3.0,58,0.00,,,0.01,WUHU216DAVISWMX,2013-05-10 21:03:00,
2013-05-10 17:08:00,77.1,62.8,29.96,West,276,0.0,1.0,61,0.00,,,0.01,WUHU216DAVISWMX,2013-05-10 21:08:00,
2013-05-10 17:13:00,77.1,61.9,29.96,WSW,243,0.0,3.0,59,0.00,,,0.01,WUHU216DAVISWMX,2013-05-10 21:13:00,
2013-05-10 17:18:00,77.2,61.5,29.96,West,259,3.0,3.0,58,0.00,,,0.01,WUHU216DAVISWMX,2013-05-10 21:18:00,
2013-05-10 17:23:00,77.2,62.0,29.96,SW,220,2.0,3.0,59,0.00,,,0.01,WUHU216DAVISWMX,2013-05-10 21:23:00,
2013-05-10 17:28:00,77.3,62.1,29.96,SW,219,1.0,3.0,59,0.00,,,0.01,WUHU216DAVISWMX,2013-05-10 21:28:00,
2013-05-10 17:33:00,77.3,62.6,29.95,SW,219,0.0,2.0,60,0.00,,,0.01,WUHU216DAVISWMX,2013-05-10 21:33:00,
2013-05-10 17:38:00,77.1,61.4,29.95,WSW,247,0.0,4.0,58,0.00,,,0.01,WUHU216DAVISWMX,2013-05-10 21:38:00,
2013-05-10 17:43:00,77.1,62.4,29.95,WSW,246,3.0,4.0,60,0.00,,,0.01,WUHU216DAVISWMX,2013-05-10 21:43:00,
2013-05-10 17:48:00,77.0,62.3,29.95,WSW,248,1.0,4.0,60,0.00,,,0.01,WUHU216DAVISWMX,2013-05-10 21:48:00,
2013-05-10 17:53:00,76.9,61.2,29.95,SSW,198,1.0,4.0,58,0.00,,,0.01,WUHU216DAVISWMX,2013-05-10 21:53:00,
2013-05-10 17:58:00,76.8,62.1,29.95,SW,225,2.0,4.0,60,0.00,,,0.01,WUHU216DAVISWMX,2013-05-10 21:58:00,
2013-05-10 18:03:00,76.6,61.9,29.95,SW,231,2.0,3.0,60,0.00,,,0.01,WUHU216DAVISWMX,2013-05-10 22:03:00,
2013-05-10 18:08:00,76.6,62.4,29.95,SW,226,0.0,3.0,61,0.00,,,0.01,WUHU216DAVISWMX,2013-05-10 22:08:00,
2013-05-10 18:13:00,76.5,62.7,29.95,SW,227,1.0,2.0,62,0.00,,,0.01,WUHU216DAVISWMX,2013-05-10 22:13:00,
2013-05-10 18:18:00,76.3,61.1,29.95,WSW,238,2.0,3.0,59,0.00,,,0.01,WUHU216DAVISWMX,2013-05-10 22:18:00,
2013-05-10 18:23:00,76.4,61.7,29.95,SW,214,1.0,3.0,60,0.00,,,0.01,WUHU216DAVISWMX,2013-05-10 22:23:00,
2013-05-10 18:28:00,75.9,60.7,29.95,WSW,254,1.0,5.0,59,0.00,,,0.01,WUHU216DAVISWMX,2013-05-10 22:28:00,
2013-05-10 18:33:00,75.7,60.6,29.94,SW,232,0.0,5.0,59,0.00,,,0.01,WUHU216DAVISWMX,2013-05-10 22:33:00,
2013-05-10 18:38:00,75.5,60.4,29.95,SW,217,0.0,4.0,59,0.00,,,0.01,WUHU216DAVISWMX,2013-05-10 22:38:00,
2013-05-10 18:43:00,75.3,60.7,29.95,SW,217,2.0,2.0,60,0.00,,,0.01,WUHU216DAVISWMX,2013-05-10 22:43:00,
2013-05-10 18:48:00,75.0,60.4,29.96,WSW,237,0.0,2.0,60,0.00,,,0.01,WUHU216DAVISWMX,2013-05-10 22:48:00,
2013-05-10 18:53:00,74.8,60.7,29.96,WSW,238,1.0,2.0,61,0.00,,,0.01,WUHU216DAVISWMX,2013-05-10 22:53:00,
2013-05-10 18:58:00,74.5,60.4,29.97,WSW,238,0.0,2.0,61,0.00,,,0.01,WUHU216DAVISWMX,2013-05-10 22:58:00,
2013-05-10 19:03:00,74.3,61.1,29.97,WSW,238,0.0,1.0,63,0.00,,,0.01,WUHU216DAVISWMX,2013-05-10 23:03:00,
2013-05-10 19:08:00,74.2,61.5,29.97,WSW,238,0.0,1.0,64,0.00,,,0.01,WUHU216DAVISWMX,2013-05-10 23:08:00,
2013-05-10 19:13:00,73.9,61.6,29.97,WSW,238,0.0,0.0,65,0.00,,,0.01,WUHU216DAVISWMX,2013-05-10 23:13:00,
2013-05-10 19:18:00,73.7,61.8,29.97,WSW,238,0.0,0.0,66,0.00,,,0.01,WUHU216DAVISWMX,2013-05-10 23:18:00,
2013-05-10 19:23:00,73.3,62.3,29.97,WSW,238,0.0,0.0,68,0.00,,,0.01,WUHU216DAVISWMX,2013-05-10 23:23:00,
2013-05-10 19:28:00,73.1,62.5,29.97,WSW,238,0.0,0.0,69,0.00,,,0.01,WUHU216DAVISWMX,2013-05-10 23:28:00,
2013-05-10 19:33:00,72.7,62.9,29.97,WSW,238,0.0,0.0,71,0.00,,,0.01,WUHU216DAVISWMX,2013-05-10 23:33:00,
2013-05-10 19:38:00,72.5,63.1,29.97,WSW,238,0.0,0.0,72,0.00,,,0.01,WUHU216DAVISWMX,2013-05-10 23:38:00,
2013-05-10 19:43:00,72.1,63.5,29.97,WSW,237,0.0,0.0,74,0.00,,,0.01,WUHU216DAVISWMX,2013-05-10 23:43:00,
2013-05-10 19:48:00,71.8,62.8,29.97,WSW,238,0.0,0.0,73,0.00,,,0.01,WUHU216DAVISWMX,2013-05-10 23:48:00,
2013-05-10 19:53:00,71.5,63.3,29.97,WSW,238,0.0,0.0,75,0.00,,,0.01,WUHU216DAVISWMX,2013-05-10 23:53:00,
2013-05-10 19:58:00,71.1,62.9,29.97,WSW,238,0.0,0.0,75,0.00,,,0.01,WUHU216DAVISWMX,2013-05-10 23:58:00,
2013-05-10 20:03:00,70.9,63.1,29.97,WSW,237,0.0,0.0,76,0.00,,,0.01,WUHU216DAVISWMX,2013-05-11 00:03:00,
2013-05-10 20:08:00,70.4,62.6,29.97,WSW,237,0.0,0.0,76,0.00,,,0.01,WUHU216DAVISWMX,2013-05-11 00:08:00,
2013-05-10 20:13:00,70.4,63.0,29.97,WSW,238,0.0,0.0,77,0.00,,,0.01,WUHU216DAVISWMX,2013-05-11 00:13:00,
2013-05-10 20:18:00,69.8,62.7,29.97,WSW,238,0.0,0.0,78,0.00,,,0.01,WUHU216DAVISWMX,2013-05-11 00:18:00,
2013-05-10 20:23:00,69.5,62.4,29.97,WSW,238,0.0,0.0,78,0.00,,,0.01,WUHU216DAVISWMX,2013-05-11 00:23:00,
2013-05-10 20:28:00,69.2,62.5,29.97,WSW,238,0.0,0.0,79,0.00,,,0.01,WUHU216DAVISWMX,2013-05-11 00:28:00,
2013-05-10 20:33:00,69.0,62.7,29.97,WSW,238,0.0,0.0,80,0.00,,,0.01,WUHU216DAVISWMX,2013-05-11 00:33:00,
2013-05-10 20:38:00,68.7,62.7,29.97,WSW,238,0.0,0.0,81,0.00,,,0.01,WUHU216DAVISWMX,2013-05-11 00:38:00,
2013-05-10 20:43:00,68.5,62.5,29.97,WSW,238,0.0,0.0,81,0.00,,,0.01,WUHU216DAVISWMX,2013-05-11 00:43:00,
2013-05-10 20:48:00,68.2,62.2,29.97,WSW,237,0.0,0.0,81,0.00,,,0.01,WUHU216DAVISWMX,2013-05-11 00:48:00,
2013-05-10 20:53:00,68.2,62.5,29.97,WSW,238,0.0,0.0,82,0.00,,,0.01,WUHU216DAVISWMX,2013-05-11 00:53:00,
2013-05-10 20:58:00,67.8,62.5,29.97,WSW,237,0.0,0.0,83,0.00,,,0.01,WUHU216DAVISWMX,2013-05-11 00:58:00,
2013-05-10 21:03:00,67.8,62.8,29.98,WSW,238,0.0,0.0,84,0.00,,,0.01,WUHU216DAVISWMX,2013-05-11 01:03:00,
2013-05-10 21:08:00,67.5,62.5,29.98,WSW,237,0.0,0.0,84,0.00,,,0.01,WUHU216DAVISWMX,2013-05-11 01:08:00,
2013-05-10 21:13:00,67.4,62.1,29.98,WSW,238,0.0,0.0,83,0.00,,,0.01,WUHU216DAVISWMX,2013-05-11 01:13:00,
2013-05-10 21:18:00,67.3,62.3,29.98,WSW,238,0.0,0.0,84,0.00,,,0.01,WUHU216DAVISWMX,2013-05-11 01:18:00,
2013-05-10 21:23:00,66.8,62.2,29.98,WSW,238,0.0,0.0,85,0.00,,,0.01,WUHU216DAVISWMX,2013-05-11 01:23:00,
2013-05-10 21:28:00,66.7,62.4,29.98,WSW,238,0.0,0.0,86,0.00,,,0.01,WUHU216DAVISWMX,2013-05-11 01:28:00,
2013-05-10 21:33:00,66.6,62.6,29.98,WSW,238,0.0,0.0,87,0.00,,,0.01,WUHU216DAVISWMX,2013-05-11 01:33:00,
2013-05-10 21:38:00,66.8,62.8,29.98,WSW,238,0.0,0.0,87,0.00,,,0.01,WUHU216DAVISWMX,2013-05-11 01:38:00,
2013-05-10 21:43:00,66.6,62.6,29.98,WSW,238,0.0,0.0,87,0.00,,,0.01,WUHU216DAVISWMX,2013-05-11 01:43:00,
2013-05-10 21:48:00,66.6,62.6,29.98,WSW,238,0.0,0.0,87,0.00,,,0.01,WUHU216DAVISWMX,2013-05-11 01:48:00,
2013-05-10 21:53:00,66.4,62.7,29.98,WSW,238,0.0,0.0,88,0.00,,,0.01,WUHU216DAVISWMX,2013-05-11 01:53:00,
2013-05-10 21:58:00,66.4,62.7,29.98,WSW,238,0.0,0.0,88,0.00,,,0.01,WUHU216DAVISWMX,2013-05-11 01:58:00,
2013-05-10 22:03:00,66.2,62.8,29.98,WSW,238,0.0,0.0,89,0.00,,,0.01,WUHU216DAVISWMX,2013-05-11 02:03:00,
2013-05-10 22:08:00,66.0,62.3,29.98,WSW,238,0.0,0.0,88,0.00,,,0.01,WUHU216DAVISWMX,2013-05-11 02:08:00,
2013-05-10 22:14:00,65.8,62.5,29.97,WSW,237,0.0,0.0,89,0.00,,,0.01,WUHU216DAVISWMX,2013-05-11 02:14:00,
2013-05-10 22:19:00,65.6,62.3,29.97,WSW,238,0.0,0.0,89,0.00,,,0.01,WUHU216DAVISWMX,2013-05-11 02:19:00,
2013-05-10 22:24:00,65.5,62.2,29.98,WSW,237,0.0,0.0,89,0.00,,,0.01,WUHU216DAVISWMX,2013-05-11 02:24:00,
2013-05-10 22:29:00,65.5,62.2,29.97,WSW,237,0.0,0.0,89,0.00,,,0.01,WUHU216DAVISWMX,2013-05-11 02:29:00,
2013-05-10 22:34:00,65.4,62.4,29.97,WSW,237,0.0,0.0,90,0.00,,,0.01,WUHU216DAVISWMX,2013-05-11 02:34:00,
2013-05-10 22:39:00,65.1,62.1,29.97,WSW,238,0.0,0.0,90,0.00,,,0.01,WUHU216DAVISWMX,2013-05-11 02:39:00,
2013-05-10 22:44:00,65.0,62.0,29.97,WSW,237,0.0,0.0,90,0.00,,,0.01,WUHU216DAVISWMX,2013-05-11 02:44:00,
2013-05-10 22:49:00,64.9,61.6,29.97,WSW,238,0.0,0.0,89,0.00,,,0.01,WUHU216DAVISWMX,2013-05-11 02:49:00,
2013-05-10 22:54:00,64.8,61.8,29.97,WSW,238,0.0,0.0,90,0.00,,,0.01,WUHU216DAVISWMX,2013-05-11 02:54:00,
2013-05-10 22:59:00,64.7,61.7,29.97,WSW,238,0.0,0.0,90,0.00,,,0.01,WUHU216DAVISWMX,2013-05-11 02:59:00,
2013-05-10 23:04:00,64.5,61.5,29.96,WSW,237,0.0,0.0,90,0.00,,,0.01,WUHU216DAVISWMX,2013-05-11 03:04:00,
2013-05-10 23:09:00,64.4,61.4,29.96,WSW,238,0.0,0.0,90,0.00,,,0.01,WUHU216DAVISWMX,2013-05-11 03:09:00,
2013-05-10 23:14:00,64.2,61.5,29.97,WSW,237,0.0,0.0,91,0.00,,,0.01,WUHU216DAVISWMX,2013-05-11 03:14:00,
2013-05-10 23:19:00,64.0,61.3,29.97,WSW,237,0.0,0.0,91,0.00,,,0.01,WUHU216DAVISWMX,2013-05-11 03:19:00,
2013-05-10 23:24:00,63.8,61.1,29.97,WSW,238,0.0,0.0,91,0.00,,,0.01,WUHU216DAVISWMX,2013-05-11 03:24:00,
2013-05-10 23:29:00,63.6,60.9,29.97,WSW,237,0.0,0.0,91,0.00,,,0.01,WUHU216DAVISWMX,2013-05-11 03:29:00,
2013-05-10 23:34:00,63.5,60.8,29.97,WSW,237,0.0,0.0,91,0.00,,,0.01,WUHU216DAVISWMX,2013-05-11 03:34:00,
2013-05-10 23:39:00,63.3,60.6,29.97,WSW,238,0.0,0.0,91,0.00,,,0.01,WUHU216DAVISWMX,2013-05-11 03:39:00,
2013-05-10 23:44:00,63.1,60.7,29.97,WSW,238,0.0,0.0,92,0.00,,,0.01,WUHU216DAVISWMX,2013-05-11 03:44:00,
2013-05-10 23:49:00,63.0,60.6,29.97,WSW,238,0.0,0.0,92,0.00,,,0.01,WUHU216DAVISWMX,2013-05-11 03:49:00,
2013-05-10 23:54:00,62.9,60.5,29.97,WSW,237,0.0,0.0,92,0.00,,,0.01,WUHU216DAVISWMX,2013-05-11 03:54:00,
2013-05-10 23:59:00,62.8,60.4,29.97,WSW,238,0.0,0.0,92,0.00,,,0.01,WUHU216DAVISWMX,2013-05-11 03:59:00,